Weather History for Elkins, WV

Change the Weather History Date:

Monday, June 9, 2014

  Actual Average Record
Temperature  
Mean Temperature 66 °F 65 °F  
Max Temperature 72 °F 77 °F 93 °F (1933)
Min Temperature 60 °F 53 °F 35 °F (1912)
Degree Days  
Heating Degree Days 0 2  
Month to date heating degree days 9 29  
Since 1 June heating degree days 9 29  
Since 1 July heating degree days 5997 5826  
Cooling Degree Days 1 2  
Month to date cooling degree days 15 17  
Year to date cooling degree days 51 40  
Since 1 June cooling degree days 15 17  
Growing Degree Days 16 (Base 50)    
Moisture  
Dew Point 59 °F    
Average Humidity 82    
Maximum Humidity 97    
Minimum Humidity 66    
Precipitation  
Precipitation T in 0.14 in 1.62 in (1925)
Month to date precipitation 1.08 1.28  
Year to date precipitation 16.42 20.49  
Snow  
Snow 0.00 in - - ()
Month to date snowfall 0.0  
Since 1 September snowfall 92.3  
Snow Depth 0.00 in    
Sea Level Pressure  
Sea Level Pressure 29.95 in    
Wind  
Wind Speed 3 mph (NW)    
Max Wind Speed 13 mph    
Max Gust Speed 15 mph    
Visibility 10 miles    
Events      
T = Trace of Precipitation, MM = Missing Value Source: NWS Daily Summary

Daily Weather History Graph

Daily Weather History Graph

Search for Another Location

Airport:

Trip Planner

Search our weather history database for the weather conditions in past years. The results will help you decide how hot, cold, wet, or windy it might be!

Date:

Astronomy

Jun. 09, 2014 Rise Set
Actual Time 5:53 AM EDT 8:43 PM EDT
Civil Twilight 5:22 AM EDT 9:15 PM EDT
Nautical Twilight 4:42 AM EDT 9:55 PM EDT
Astronomical Twilight 3:56 AM EDT 10:41 PM EDT
Moon 5:04 PM EDT (6/9) 3:18 AM EDT (6/9)
Length of Visible Light 15h 53m
Length of Day
14h 49m
Waxing Gibbous, 85% of the Moon is Illuminated
Jun 9
Waxing Gibbous
Jun 13
Full
Jun 19
Last Quarter
Jun 27
New
Jul 5
First Quarter

Hourly Weather History & Observations

Time (EDT) Temp. Dew Point Humidity Pressure Visibility Wind Dir Wind Speed Gust Speed Precip Events Conditions
12:25 AM 66.9 °F 59.0 °F 76% 29.95 in 10.0 mi South 3.5 mph - N/A   Overcast
12:51 AM 66.0 °F 59.0 °F 78% 29.92 in 10.0 mi Calm Calm - N/A   Overcast
1:22 AM 64.0 °F 57.9 °F 80% 29.95 in 10.0 mi WNW 3.5 mph - N/A   Overcast
1:49 AM 64.4 °F 57.2 °F 77% 29.94 in 10.0 mi WSW 5.8 mph - N/A   Mostly Cloudy
1:51 AM 64.9 °F 57.9 °F 78% 29.90 in 10.0 mi WSW 5.8 mph - N/A   Mostly Cloudy
2:37 AM 64.9 °F 57.9 °F 78% 29.94 in 10.0 mi Calm Calm - N/A   Mostly Cloudy
2:51 AM 66.0 °F 57.9 °F 75% 29.91 in 10.0 mi WNW 3.5 mph - N/A   Overcast
3:20 AM 64.9 °F 59.0 °F 81% 29.94 in 10.0 mi SW 3.5 mph - N/A   Overcast
3:51 AM 64.9 °F 59.0 °F 81% 29.91 in 10.0 mi West 3.5 mph - N/A   Overcast
4:51 AM 64.0 °F 59.0 °F 84% 29.91 in 10.0 mi Calm Calm - N/A   Overcast
5:51 AM 64.0 °F 59.0 °F 84% 29.91 in 10.0 mi Calm Calm - N/A   Overcast
6:51 AM 64.0 °F 60.1 °F 87% 29.93 in 10.0 mi Calm Calm - N/A   Overcast
7:43 AM 64.0 °F 60.1 °F 87% 29.96 in 10.0 mi Calm Calm - N/A   Overcast
7:51 AM 64.0 °F 59.0 °F 84% 29.94 in 10.0 mi Calm Calm - N/A   Overcast
8:51 AM 64.9 °F 59.0 °F 81% 29.94 in 10.0 mi Calm Calm - N/A   Overcast
9:51 AM 66.0 °F 60.1 °F 81% 29.95 in 10.0 mi North 6.9 mph - 0.00 in   Overcast
10:51 AM 69.1 °F 61.0 °F 75% 29.94 in 10.0 mi NNW 6.9 mph - N/A   Overcast
10:59 AM 68.0 °F 60.1 °F 76% 29.96 in 10.0 mi NNW 6.9 mph - N/A   Overcast
11:51 AM 68.0 °F 60.1 °F 76% 29.95 in 10.0 mi NW 8.1 mph - N/A   Overcast
12:30 PM 66.9 °F 60.1 °F 79% 29.99 in 10.0 mi NNW 5.8 mph - N/A   Overcast
12:51 PM 68.0 °F 60.1 °F 76% 29.96 in 10.0 mi WNW 8.1 mph - N/A   Overcast
1:16 PM 70.0 °F 60.1 °F 71% 29.97 in 10.0 mi NW 8.1 mph - N/A   Mostly Cloudy
1:25 PM 69.1 °F 60.1 °F 73% 29.98 in 10.0 mi NW 9.2 mph - N/A   Mostly Cloudy
1:51 PM 69.1 °F 59.0 °F 70% 29.96 in 10.0 mi NNW 8.1 mph - N/A   Overcast
2:14 PM 71.1 °F 59.0 °F 66% 29.98 in 10.0 mi North 6.9 mph - N/A   Overcast
2:21 PM 69.1 °F 59.0 °F 70% 29.98 in 10.0 mi NW 10.4 mph - N/A   Overcast
2:39 PM 68.0 °F 59.0 °F 73% 29.98 in 10.0 mi WNW 10.4 mph - N/A   Overcast
3:51 PM 66.2 °F 59.0 °F 78% 29.98 in 10.0 mi NNW 8.1 mph - N/A   Overcast
4:51 PM 69.1 °F 59.0 °F 70% 29.95 in 10.0 mi North 8.1 mph - N/A   Mostly Cloudy
5:51 PM 69.1 °F 57.9 °F 68% 29.94 in 10.0 mi Calm Calm - N/A   Clear
6:51 PM 68.0 °F 59.0 °F 73% 29.94 in 10.0 mi NNW 5.8 mph - N/A   Clear
7:51 PM 66.9 °F 59.0 °F 76% 29.94 in 10.0 mi North 3.5 mph - N/A   Scattered Clouds
8:51 PM 64.0 °F 59.0 °F 84% 29.94 in 10.0 mi NW 3.5 mph - N/A   Scattered Clouds
9:51 PM 62.1 °F 59.0 °F 90% 29.97 in 10.0 mi Calm Calm - N/A   Clear
10:51 PM 61.0 °F 59.0 °F 93% 29.96 in 9.0 mi Calm Calm - N/A   Clear
11:51 PM 60.1 °F 57.9 °F 93% 29.97 in 6.0 mi Calm Calm - N/A   Clear